TIME,DELAY(SENSOR),PRES,OXYGEN,RAWTEMP,T(OPTODE),TCPHASE,FLUOR,BETA(BETA700),BETA(BETA412),BETA(BETA440),CDOM,C(CSC),ED(ED412.40),ED(ED444.00),ED(ED489.70),ED(ED554.30),LU(LU411.80),LU(LU443.40),LU(LU489.60),LU(LU554.10),COMP,TILTX,TILTY,CHECK
1370578243,5809,780.5100097656250000,42.6247215270996100,655.1333007812500000,4.7880611419677730,54.5472602844238300,53,100,86,80,80,14839,2147752146,2147425545,2148008082,2147870290,2147639268,2147056484,2148256969,2147195693,980,4,13,50959
1370581839,5810,818.3499755859375000,44.3139610290527340,658.8734130859375000,4.6650562286376950,54.3473587036132800,52,98,86,78,79,14840,2147754212,2147423972,2148009938,2147873618,2147638080,2147060297,2148258386,2147194240,36,4,13,45322
1370585439,5806,833.5700073242188000,43.7570991516113300,659.8339843750000000,4.6334362030029300,54.4333915710449200,53,99,86,81,79,14838,2147752786,2147425554,2148007625,2147873782,2147638838,2147054061,2148257673,2147195465,2699,4,13,64443
1370589039,5809,851.0999755859375000,46.5099487304687500,662.9727783203125000,4.5300540924072270,54.0713882446289060,53,100,85,82,79,14842,2147753472,2147425728,2148009709,2147875309,2147641618,2147058898,2148258550,2147195565,2889,4,13,21479
1370592639,5810,850.8800048828125000,47.6143608093261700,664.1173706054688000,4.4923291206359860,53.9286117553710940,53,100,85,79,80,14843,2147755830,2147426706,2148008960,2147872320,2147639771,2147055753,2148264832,2147195044,229,4,13,48056
1370596239,5806,851.7399902343750000,48.3978004455566400,664.9174194335938000,4.4659500122070310,53.8304710388183600,52,99,86,77,79,14845,2147757769,2147424658,2148009206,2147876416,2147640612,2147052937,2148257828,2147199186,316,4,13,49383
1370599839,5807,874.8900146484375000,48.9425086975097660,667.4777832031250000,4.3814787864685060,53.7865295410156250,52,97,86,80,79,14844,2147756050,2147424320,2148007917,2147875693,2147640722,2147056896,2148260827,2147198281,3461,4,13,5859
1370603439,5809,878.1099853515625000,48.6677017211914060,667.2302856445312000,4.3896470069885250,53.8192291259765600,52,98,85,79,80,14844,2147754066,2147425261,2148010267,2147871268,2147639314,2147060187,2148263515,2147198089,3531,4,13,19622
1370607039,5806,883.2600097656250000,48.9698715209960940,667.5402221679688000,4.3794212341308590,53.7795906066894500,52,98,85,77,79,14844,2147754340,2147424310,2148008484,2147874998,2147638912,2147055140,2148261897,2147196827,217,4,13,63349
1370610639,5808,907.3900146484375000,47.9124717712402340,669.2194824218750000,4.3239750862121580,53.9497413635253900,53,98,83,79,81,14840,2147755081,2147424868,2148009938,2147876397,2147639899,2147058395,2148261449,2147197394,1749,4,13,29071
1370614239,5807,913.0499877929688000,47.3021202087402340,669.7593994140625000,4.3061451911926270,54.0438613891601560,53,97,86,78,80,14840,2147757833,2147426806,2148010505,2147873910,2147640064,2147052525,2148264557,2147198253,3521,4,13,27132
1370617839,5808,921.7399902343750000,48.5158081054687500,668.4011230468750000,4.3509998321533200,53.8554916381835940,52,99,86,78,79,14841,2147757403,2147428772,2148009590,2147874486,2147639634,2147057691,2148262665,2147196955,3509,4,13,21809
1370621439,5811,940.8599853515625000,47.3042602539062500,670.7921142578125000,4.2720298767089840,54.0551795959472660,52,102,85,80,80,14839,2147755574,2147425563,2148011044,2147875044,2147644315,2147053129,2148260854,2147197540,101,4,13,44964
1370625039,5808,944.2500000000000000,47.3315391540527340,670.8367919921875000,4.2705521583557130,54.0562591552734400,53,99,86,78,80,14839,2147756269,2147427328,2148009206,2147874624,2147642148,2147054070,2148263533,2147192713,148,4,13,20214
1370628639,5810,935.2500000000000000,48.0589485168457000,672.2598266601562000,4.2235198020935060,53.9688110351562500,53,99,87,79,80,14838,2147759963,2147425444,2148012086,2147875538,2147638875,2147054171,2148264182,2147196452,3524,4,13,59526
1370632239,5809,970.1099853515625000,49.1640892028808600,674.4025878906250000,4.1526532173156740,53.8398094177246100,53,98,85,77,80,14820,2147759442,2147427126,2148008566,2147873929,2147642550,2147052580,2148267748,2147196809,353,4,13,55010
1370635839,5810,962.5300292968750000,49.3760986328125000,674.8422241210938000,4.1381092071533200,53.8177909851074200,52,99,82,79,80,14820,2147756854,2147427163,2148008978,2147876480,2147641280,2147055625,2148264859,2147196388,73,4,13,28236
1370639439,5809,964.2299804687500000,49.9474105834960940,675.3438720703125000,4.1215038299560550,53.7421607971191400,52,99,87,79,81,14819,2147756150,2147424155,2148008420,2147875958,2147644324,2147047497,2148262637,2147193993,3319,4,13,42548
1370643039,5810,960.9799804687500000,49.9358482360839840,675.7756958007812000,4.1072158813476560,53.7514991760253900,52,99,86,78,80,14814,2147758290,2147423204,2148008274,2147874907,2147642468,2147054153,2148265654,2147195355,32,4,13,27144
1370646639,5809,991.6300048828125000,50.6650810241699200,678.3720703125000000,4.0212359428405760,53.6851310729980500,52,98,86,78,80,14820,2147760868,2147430272,2148008658,2147873792,2147638116,2147054464,2148263762,2147195419,106,4,13,6616
1370650239,5811,991.0499877929688000,51.1580581665039060,679.1397094726562000,3.9958019256591797,53.6316184997558600,52,97,82,81,79,14815,2147759350,2147428013,2148008603,2147874624,2147644516,2147047213,2148267620,2147192640,42,4,13,35844
1370653839,5810,989.7899780273438000,50.9913787841796900,678.8947143554688000,4.0039219856262210,53.6492195129394500,52,99,84,79,80,14818,2147758290,2147427894,2148012196,2147874944,2147639835,2147060205,2148262546,2147195090,3553,4,13,40966
1370657439,5810,1001.7399902343750000,50.9009094238281250,678.0546264648438000,4.0317540168762210,53.6463203430175800,53,99,85,78,79,14815,2147759936,2147425910,2148009161,2147877385,2147641792,2147052726,2148265965,2147198427,21,4,13,25550
1370661039,5805,998.2700195312500000,50.6118011474609400,677.9995117187500000,4.0335807800292970,53.6865196228027340,53,98,83,77,79,14814,2147757275,2147424539,2148011181,2147874212,2147640868,2147054153,2148263634,2147196242,3499,4,13,13418
1370664639,5808,1003.9400024414062000,50.3909301757812500,677.6627807617188000,4.0447330474853520,53.7123184204101560,51,98,84,78,81,14815,2147757312,2147425892,2148010157,2147874166,2147640841,2147055981,2148266176,2147195017,74,4,13,16313
1370668239,5807,1002.7000122070312000,50.5504302978515600,676.9360961914062000,4.0687980651855470,53.6834487915039060,52,100,82,79,79,14814,2147760768,2147424320,2148012306,2147875602,2147639862,2147055186,2148265243,2147195190,230,4,13,13162
1370671839,5806,995.8699951171875000,50.3457908630371100,676.5053710937500000,4.0830569267272950,53.7026710510253900,53,100,86,79,80,14814,2147756699,2147426285,2148007762,2147872685,2147641179,2147056768,2148259894,2147195099,3524,4,13,63128
1370675439,5809,1003.0599975585938000,50.3675003051757800,676.8427734375000000,4.0718879699707030,53.7095985412597660,52,98,83,78,79,14816,2147758125,2147427273,2148010176,2147875593,2147639030,2147055332,2148262994,2147193435,169,4,13,36087
1370679039,5809,1006.9099731445312000,50.4788017272949200,677.0283813476562000,4.0657410621643070,53.6933708190918000,53,98,84,80,79,14812,2147758016,2147425353,2148009435,2147872283,2147641152,2147055341,2148263597,2147197339,409,4,13,12054
1370682639,5807,990.4400024414062000,50.3880004882812500,677.8093872070312000,4.0398750305175780,53.7151107788085940,52,99,86,79,80,14813,2147758089,2147427300,2148009993,2147872941,2147641819,2147050697,2148258624,2147197513,826,4,13,29114
1370686239,5810,991.2800292968750000,50.9944190979003900,679.0037841796875000,4.0003051757812500,53.6467094421386700,51,99,85,78,80,14813,2147756498,2147424886,2148012470,2147874477,2147642925,2147048667,2148262710,2147201664,54,4,13,5351
1370689839,5808,988.4299926757812000,51.9840507507324200,680.2133178710938000,3.9602179527282715,53.5284614562988300,53,99,84,78,79,14815,2147759131,2147427510,2148009600,2147873910,2147640886,2147045622,2148264758,2147199451,3473,4,13,59230
1370693439,5812,995.1799926757812000,52.3599586486816400,679.8137817382812000,3.9734590053558350,53.4727287292480500,51,100,88,79,80,14811,2147759085,2147424228,2148011492,2147874825,2147643108,2147052370,2148259638,2147196662,3534,4,13,33745
1370697039,5808,1000.5399780273438000,50.8473701477050800,677.9838867187500000,4.0340957641601560,53.6516494750976560,52,102,86,78,80,14808,2147757440,2147425956,2148009206,2147875995,2147643236,2147048795,2148259209,2147199524,3566,4,13,64104
1370700639,5809,1002.5000000000000000,50.8881111145019500,678.5025024414062000,4.0169157981872560,53.6564102172851560,53,97,84,78,78,14814,2147757302,2147427712,2148007460,2147875611,2147641142,2147052297,2148268534,2147200749,85,4,13,27722
1370704239,5812,1005.2299804687500000,50.4889297485351560,677.4871215820312000,4.0505518913269040,53.6985397338867200,53,97,84,79,80,14815,2147758272,2147425170,2148013613,2147872384,2147642249,2147057764,2148261101,2147197165,168,4,13,44004
1370707839,5805,1004.6599731445312000,50.0454292297363300,676.7271118164062000,4.0757179260253910,53.7461318969726560,52,100,87,78,80,14811,2147756416,2147427428,2148009444,2147875940,2147643300,2147052013,2148267017,2147200630,930,4,13,56057
1370711439,5807,1008.0800170898438000,49.8232498168945300,676.4439697265625000,4.0850930213928220,53.7782402038574200,53,97,86,77,80,14810,2147755117,2147427520,2148008512,2147875584,2147642075,2147055798,2148262582,2147201069,500,4,13,12626
1370715039,5810,1004.5700073242188000,50.3544807434082000,677.6450195312500000,4.0453219413757320,53.7179489135742200,52,98,84,78,81,14806,2147757037,2147424594,2148012352,2147872521,2147639332,2147058587,2148260635,2147200054,232,4,13,47515
1370718639,5805,997.5900268554688000,50.3952713012695300,677.4448852539062000,4.0519471168518070,53.7109413146972660,53,100,84,80,80,14812,2147758107,2147427721,2148008886,2147876507,2147643584,2147050212,2148262509,2147197293,886,4,13,47146
1370722256,5811,1001.2600097656250000,50.5948905944824200,678.2924194335938000,4.0238761901855470,53.6957283020019500,53,99,85,78,80,14823,2147760905,2147425408,2148011492,2147875867,2147639021,2147052918,2148263424,2147195190,3524,4,13,21426
